Tracking 25612 objects as of 19-May-2022
HD Live streaming from Space Station
objects crossing your sky now

SL-14 DEB

Track SL-14 DEB now!
10-day predictions


NORAD ID: 45293
Int'l Code: 1991-056AF
Perigee: 803.2 km
Apogee: 1,257.8 km
Inclination: 82.6 °
Period: 105.6 minutes
Semi major axis: 7401 km
RCS: Unknown
Launch date: August 15, 1991
Source: Commonwealth of Independent States (former USSR) (CIS)
Launch site: PLESETSK MISSILE AND SPACE COMPLEX (PKMTR)

Note: This is SATELLITE DEBRIS
aabbcc
Your satellite tracking list
Your tracking list is empty




NASA's NSSDC Master Catalog

Two Line Element Set (TLE):
1 45293U 91056AF  22138.22008254  .00016662  00000-0  15347-1 0  9995
2 45293  82.5519  66.9580 0307082  58.7675 304.3176 13.63397201111425
Source of the keplerian elements: AFSPC